Вернуться в каталог

CYGFM05

АктивенПогодаVLEO
NORAD 41884·PAYLOAD·🇺🇸 United States

Запущен Dec 15, 2016 с Cape Canaveral Space Force Station

Loading…

Ближайшие Пролёты (ближайшие 24 часа)

TLE

СвежийSource: Space-Track

Эпоха: Sep 14, 2026, 14:17 UTC

1 41884U 16078A   26257.59563814  .00024388  00000-0  28506-3 0  9999
2 41884  34.9572  26.8205 0005542 288.2351  71.7772 15.60562483542715

Отслеживайте CYGFM05 в реальном времени с AllMySat

Download on the App Store